Hollywood, FL

4:32 PM EDT on October 16, 2019 (GMT -0400)
North Perry

Weather History for KHWO - August, 2019

Change the Weather History Date:

Wednesday, August 14, 2019

  Actual Average (KFLL) Record (KFLL)
Temperature  
Mean Temperature 84 °F 85 °F  
Max Temperature 91 °F 91 °F 97 °F (1982)
Min Temperature 77 °F 79 °F 68 °F (1923)
Degree Days  
Heating Degree Days 0 0  
Month to date heating degree days 0  
Since 1 June heating degree days 0  
Since 1 July heating degree days 0  
Cooling Degree Days 18 20  
Month to date cooling degree days 280  
Year to date cooling degree days 2839  
Since 1 June cooling degree days 1421  
Growing Degree Days 34 (Base 50)    
Moisture  
Dew Point 74 °F    
Average Humidity 77    
Maximum Humidity 94    
Minimum Humidity 57    
Precipitation  
Precipitation 0.82 in 0.24 in 2.71 in (1983)
Month to date precipitation 3.15  
Year to date precipitation 36.78  
Snow  
Snow 0.00 in - - ()
Month to date snowfall  
Since 1 June snowfall  
Since 1 July snowfall  
Snow Depth -    
Sea Level Pressure  
Sea Level Pressure 30.01 in    
Wind  
Wind Speed 3 mph (South)    
Max Wind Speed 15 mph    
Max Gust Speed 22 mph    
Visibility 8 miles    
Events Rain , Thunderstorm    
T = Trace of Precipitation, MM = Missing Value Source: NWS Daily Summary

Daily Weather History Graph

Daily Weather History Graph

Search for Another Location

Airport or City:

Astronomy

Aug. 14, 2019 Rise Set
Actual Time 6:53 AM EDT 7:57 PM EDT
Civil Twilight 6:28 AM EDT 8:21 PM EDT
Nautical Twilight 6:00 AM EDT 8:50 PM EDT
Astronomical Twilight 5:30 AM EDT 9:19 PM EDT
Moon 7:43 PM EDT (8/14) 5:58 AM EDT (8/14)
Length of Visible Light 13h 52m
Length of Day
13h 04m
Waxing Gibbous, 99% of the Moon is Illuminated
Aug 14
Waxing Gibbous
Aug 15
Full
Aug 23
Last Quarter
Aug 30
New
Sep 5
First Quarter

Hourly Weather History & Observations

Time (EDT) Temp. Heat Index Dew Point Humidity Pressure Visibility Wind Dir Wind Speed Gust Speed Precip Events Conditions
12:53 AM 77.0 °F - 73.9 °F 90% 29.99 in 10.0 mi Calm Calm - N/A   Clear
1:53 AM 77.0 °F - 73.9 °F 90% 29.98 in 10.0 mi SSE 3.5 mph - N/A   Clear
2:53 AM 77.0 °F - 73.9 °F 90% 29.96 in 10.0 mi Calm Calm - N/A   Partly Cloudy
3:53 AM 78.1 °F - 73.9 °F 87% 29.96 in 10.0 mi Calm Calm - N/A   Clear
4:53 AM 77.0 °F - 73.9 °F 90% 29.97 in 10.0 mi Calm Calm - N/A   Clear
5:53 AM 77.0 °F - 75.0 °F 94% 29.97 in 10.0 mi Calm Calm - N/A   Clear
6:53 AM 77.0 °F - 75.0 °F 94% 29.99 in 10.0 mi Calm Calm - N/A   Clear
7:53 AM 79.0 °F - 75.9 °F 90% 30.01 in 10.0 mi Calm Calm - N/A   Clear
8:53 AM 84.0 °F 92.6 °F 75.9 °F 76% 30.04 in 10.0 mi East 3.5 mph - N/A   Clear
9:53 AM 88.0 °F 100.2 °F 77.0 °F 70% 30.04 in 10.0 mi SSE 9.2 mph - N/A   Scattered Clouds
10:12 AM 84.9 °F 90.7 °F 72.0 °F 65% 30.03 in 10.0 mi SSE 10.4 mph - N/A Thunderstorm Mostly Cloudy
10:21 AM 84.9 °F 90.7 °F 72.0 °F 65% 30.03 in 10.0 mi South 8.1 mph - N/A   Scattered Clouds
10:53 AM 86.0 °F 92.2 °F 72.0 °F 63% 30.03 in 10.0 mi SSE 6.9 mph - N/A   Scattered Clouds
11:53 AM 89.1 °F 99.1 °F 75.0 °F 63% 30.02 in 10.0 mi WSW 6.9 mph - N/A   Clear
12:53 PM 90.0 °F 97.9 °F 73.0 °F 57% 30.01 in 10.0 mi Variable 4.6 mph - N/A   Partly Cloudy
1:41 PM 82.9 °F 89.4 °F 73.9 °F 74% 30.03 in 3.0 mi West 3.5 mph - 0.04 in Rain , Thunderstorm Rain
1:47 PM 82.4 °F 88.2 °F 73.4 °F 74% 30.03 in 1.5 mi Variable 3.5 mph - 0.13 in Rain , Thunderstorm Thunderstorms and Rain
1:51 PM 80.6 °F 85.4 °F 73.4 °F 79% 30.03 in 1.0 mi SSE 15.0 mph 21.9 mph 0.29 in Rain , Thunderstorm Heavy Thunderstorms and Rain
1:53 PM 80.1 °F 84.5 °F 73.9 °F 81% 30.03 in 0.8 mi SSE 12.7 mph 21.9 mph 0.40 in Rain , Thunderstorm Heavy Thunderstorms and Rain
2:09 PM 77.0 °F - 73.9 °F 90% 30.01 in 1.2 mi SW 3.5 mph - 0.42 in Rain , Thunderstorm Heavy Thunderstorms and Rain
2:12 PM 78.1 °F - 73.9 °F 87% 30.02 in 2.5 mi SW 3.5 mph - 0.42 in Rain , Thunderstorm Thunderstorms and Rain
2:16 PM 79.0 °F - 75.0 °F 88% 30.02 in 5.0 mi SW 4.6 mph - 0.42 in Rain , Thunderstorm Light Thunderstorms and Rain
2:27 PM 79.0 °F - 75.0 °F 88% 30.02 in 10.0 mi Calm Calm - 0.42 in   Scattered Clouds
2:53 PM 81.0 °F 86.7 °F 75.0 °F 82% 30.01 in 10.0 mi NNW 3.5 mph - 0.42 in   Partly Cloudy
3:53 PM 84.0 °F 91.9 °F 75.0 °F 74% 29.97 in 10.0 mi Calm Calm - N/A   Clear
4:53 PM 87.1 °F 96.3 °F 75.0 °F 67% 29.96 in 10.0 mi Calm Calm - N/A   Clear
5:53 PM 89.1 °F 98.0 °F 73.9 °F 61% 29.97 in 10.0 mi SW 5.8 mph - N/A   Clear
6:53 PM 89.1 °F 97.0 °F 73.0 °F 59% 29.97 in 10.0 mi ESE 5.8 mph - N/A   Clear
7:53 PM 86.0 °F 93.0 °F 73.0 °F 65% 29.99 in 10.0 mi SSE 5.8 mph - N/A   Clear
8:53 PM 84.9 °F 93.3 °F 75.0 °F 72% 30.01 in 10.0 mi SSE 5.8 mph - N/A   Clear
9:53 PM 84.0 °F 91.9 °F 75.0 °F 74% 30.03 in 10.0 mi SSE 4.6 mph - N/A   Clear
10:53 PM 84.0 °F 92.6 °F 75.9 °F 76% 30.02 in 10.0 mi Calm Calm - N/A   Clear
11:53 PM 84.0 °F 92.6 °F 75.9 °F 76% 30.04 in 10.0 mi Calm Calm - N/A   Clear